Madison, MN

2:45 AM CDT on October 24, 2017 (GMT -0500)
Madison-Lac Qui Parle County

Weather History for KDXX - June, 2013

Change the Weather History Date:

Thursday, June 27, 2013

  Actual Average (KAQP) Record (KAQP)
Temperature  
Mean Temperature 75 °F -  
Max Temperature 84 °F 78 °F 91 °F (2001)
Min Temperature 66 °F 56 °F 48 °F (2000)
Cooling Degree Days 10    
Growing Degree Days 25 (Base 50)    
Moisture  
Dew Point 56 °F    
Average Humidity 56    
Maximum Humidity 88    
Minimum Humidity 29    
Precipitation  
Precipitation 0.00 in - - ()
Sea Level Pressure  
Sea Level Pressure 29.89 in    
Wind  
Wind Speed 10 mph (WNW)    
Max Wind Speed 23 mph    
Max Gust Speed 32 mph    
Visibility 10 miles    
Events      
Averages and records for this station are not official NWS values.
T = Trace of Precipitation, MM = Missing Value Source: NWS Daily Summary

Daily Weather History Graph

Daily Weather History Graph

Search for Another Location

Airport or City:

Trip Planner

Search our weather history database for the weather conditions in past years. The results will help you decide how hot, cold, wet, or windy it might be!

Date:

Astronomy

Jun. 27, 2013 Rise Set
Actual Time 5:40 AM CDT 9:15 PM CDT
Civil Twilight 5:02 AM CDT 9:52 PM CDT
Nautical Twilight 4:13 AM CDT 10:42 PM CDT
Astronomical Twilight 3:07 AM CDT 11:47 PM CDT
Moon 11:57 PM CDT (6/27) 10:56 AM CDT (6/27)
Length of Visible Light 16h 50m
Length of Day
15h 35m
Waning Gibbous, 76% of the Moon is Illuminated
Jun 27
Waning Gibbous
Jun 29
Last Quarter
Jul 8
New
Jul 15
First Quarter
Jul 22
Full

Hourly Weather History & Observations

Time (CDT) Temp. Heat Index Dew Point Humidity Pressure Visibility Wind Dir Wind Speed Gust Speed Precip Events Conditions
12:13 AM 68.0 °F - 64.4 °F 88% 29.84 in 10.0 mi SW 6.9 mph - N/A   Clear
12:34 AM 68.0 °F - 64.4 °F 88% 29.83 in 10.0 mi SW 6.9 mph - N/A   Clear
12:54 AM 68.0 °F - 64.4 °F 88% 29.83 in 10.0 mi SW 5.8 mph - N/A   Clear
1:13 AM 68.0 °F - 64.4 °F 88% 29.83 in 10.0 mi SW 8.1 mph - N/A   Clear
1:34 AM 68.0 °F - 62.6 °F 83% 29.84 in 10.0 mi Calm Calm - N/A   Clear
1:54 AM 69.8 °F - 62.6 °F 78% 29.84 in 10.0 mi SW 9.2 mph - N/A   Clear
2:13 AM 69.8 °F - 62.6 °F 78% 29.84 in 10.0 mi WSW 9.2 mph - N/A   Clear
2:34 AM 68.0 °F - 62.6 °F 83% 29.85 in 10.0 mi West 5.8 mph - N/A   Clear
2:54 AM 66.2 °F - 62.6 °F 88% 29.85 in 10.0 mi WNW 4.6 mph - N/A   Clear
3:13 AM 66.2 °F - 62.6 °F 88% 29.86 in 10.0 mi WNW 5.8 mph - N/A   Clear
3:34 AM 66.2 °F - 62.6 °F 88% 29.86 in 10.0 mi West 4.6 mph - N/A   Clear
3:54 AM 66.2 °F - 62.6 °F 88% 29.87 in 10.0 mi WNW 6.9 mph - N/A   Clear
4:13 AM 68.0 °F - 62.6 °F 83% 29.87 in 10.0 mi WNW 9.2 mph - N/A   Clear
4:34 AM 68.0 °F - 62.6 °F 83% 29.87 in 10.0 mi WNW 6.9 mph - N/A   Clear
4:54 AM 66.2 °F - 60.8 °F 83% 29.87 in 10.0 mi West 5.8 mph - N/A   Clear
5:13 AM 66.2 °F - 60.8 °F 83% 29.87 in 10.0 mi West 8.1 mph - N/A   Clear
5:34 AM 66.2 °F - 60.8 °F 83% 29.88 in 10.0 mi West 5.8 mph - N/A   Clear
5:54 AM 66.2 °F - 60.8 °F 83% 29.88 in 10.0 mi WNW 8.1 mph - N/A   Clear
6:13 AM 66.2 °F - 60.8 °F 83% 29.88 in 10.0 mi West 8.1 mph - N/A   Clear
6:34 AM 68.0 °F - 60.8 °F 78% 29.88 in 10.0 mi WNW 8.1 mph - N/A   Clear
6:53 AM 68.0 °F - 60.8 °F 78% 29.89 in 10.0 mi West 8.1 mph - N/A   Clear
7:13 AM 69.8 °F - 60.8 °F 73% 29.89 in 10.0 mi WNW 10.4 mph - N/A   Clear
7:34 AM 71.6 °F - 59.0 °F 64% 29.89 in 10.0 mi WNW 11.5 mph - N/A   Clear
7:53 AM 71.6 °F - 59.0 °F 64% 29.89 in 10.0 mi WNW 12.7 mph 17.3 mph N/A   Clear
8:13 AM 71.6 °F - 59.0 °F 64% 29.89 in 10.0 mi NW 13.8 mph 19.6 mph N/A   Clear
8:34 AM 71.6 °F - 57.2 °F 60% 29.89 in 10.0 mi NW 11.5 mph 17.3 mph N/A   Clear
8:53 AM 71.6 °F - 60.8 °F 69% 29.90 in 10.0 mi WNW 8.1 mph - N/A   Clear
9:13 AM 75.2 °F - 60.8 °F 61% 29.90 in 10.0 mi WNW 11.5 mph - N/A   Clear
9:33 AM 75.2 °F - 60.8 °F 61% 29.91 in 10.0 mi WNW 11.5 mph - N/A   Clear
9:53 AM 75.2 °F - 60.8 °F 61% 29.90 in 10.0 mi WNW 12.7 mph - N/A   Unknown
10:13 AM 77.0 °F - 62.6 °F 61% 29.90 in 10.0 mi WNW 9.2 mph - N/A   Clear
10:34 AM 75.2 °F - 60.8 °F 61% 29.91 in 10.0 mi WNW 11.5 mph - N/A   Clear
10:53 AM 78.8 °F - 62.6 °F 57% 29.91 in 10.0 mi WNW 16.1 mph 23.0 mph N/A   Clear
11:13 AM 78.8 °F - 59.0 °F 51% 29.91 in 10.0 mi NW 12.7 mph 19.6 mph N/A   Clear
11:34 AM 78.8 °F - 57.2 °F 47% 29.92 in 10.0 mi NW 17.3 mph 26.5 mph N/A   Clear
11:54 AM 80.6 °F 81.1 °F 59.0 °F 48% 29.92 in 10.0 mi NW 11.5 mph 20.7 mph N/A   Scattered Clouds
12:13 PM 80.6 °F 80.8 °F 57.2 °F 45% 29.91 in 10.0 mi NW 17.3 mph 24.2 mph N/A   Scattered Clouds
12:34 PM 80.6 °F 80.3 °F 53.6 °F 39% 29.92 in 10.0 mi NNW 18.4 mph 25.3 mph N/A   Scattered Clouds
12:54 PM 80.6 °F 80.3 °F 53.6 °F 39% 29.92 in 10.0 mi NNW 17.3 mph 23.0 mph N/A   Scattered Clouds
1:14 PM 82.4 °F 81.7 °F 55.4 °F 39% 29.92 in 10.0 mi NW 15.0 mph 23.0 mph N/A   Scattered Clouds
1:34 PM 80.6 °F 80.3 °F 53.6 °F 39% 29.92 in 10.0 mi NNW 18.4 mph 25.3 mph N/A   Clear
1:53 PM 82.4 °F 81.4 °F 53.6 °F 37% 29.92 in 10.0 mi NW 18.4 mph 25.3 mph N/A   Clear
2:13 PM 82.4 °F 81.4 °F 53.6 °F 37% 29.91 in 10.0 mi NW 17.3 mph 24.2 mph N/A   Clear
2:34 PM 82.4 °F - 51.8 °F 35% 29.91 in 10.0 mi WNW 23.0 mph 27.6 mph N/A   Clear
2:53 PM 82.4 °F - 51.8 °F 35% 29.91 in 10.0 mi WNW 21.9 mph 27.6 mph N/A   Clear
3:13 PM 82.4 °F - 51.8 °F 35% 29.91 in 10.0 mi NW 17.3 mph 25.3 mph N/A   Clear
3:34 PM 84.2 °F - 50.0 °F 30% 29.91 in 10.0 mi WNW 19.6 mph 28.8 mph N/A   Clear
3:53 PM 84.2 °F - 48.2 °F 29% 29.90 in 10.0 mi NW 16.1 mph 26.5 mph N/A   Clear
4:13 PM 84.2 °F - 50.0 °F 30% 29.90 in 10.0 mi NW 17.3 mph 29.9 mph N/A   Scattered Clouds
4:34 PM 84.2 °F - 51.8 °F 33% 29.90 in 10.0 mi NW 16.1 mph 25.3 mph N/A   Scattered Clouds
4:53 PM 84.2 °F - 48.2 °F 29% 29.90 in 10.0 mi NW 21.9 mph 28.8 mph N/A   Clear
5:13 PM 84.2 °F - 50.0 °F 30% 29.89 in 10.0 mi WNW 15.0 mph 26.5 mph N/A   Clear
5:34 PM 84.2 °F - 50.0 °F 30% 29.89 in 10.0 mi WNW 19.6 mph 26.5 mph N/A   Scattered Clouds
5:53 PM 84.2 °F - 50.0 °F 30% 29.89 in 10.0 mi NW 15.0 mph 26.5 mph N/A   Clear
6:14 PM 84.2 °F - 48.2 °F 29% 29.88 in 10.0 mi NW 17.3 mph 32.2 mph N/A   Clear
6:33 PM 84.2 °F - 48.2 °F 29% 29.88 in 10.0 mi WNW 21.9 mph 32.2 mph N/A   Clear
6:53 PM 84.2 °F - 48.2 °F 29% 29.88 in 10.0 mi NW 16.1 mph 27.6 mph N/A   Clear
7:14 PM 84.2 °F - 48.2 °F 29% 29.87 in 10.0 mi WNW 18.4 mph 28.8 mph N/A   Clear
7:33 PM 82.4 °F - 50.0 °F 32% 29.87 in 10.0 mi NW 15.0 mph 26.5 mph N/A   Clear
7:54 PM 80.6 °F 80.3 °F 53.6 °F 39% 29.88 in 10.0 mi NNW 11.5 mph - N/A   Clear
8:14 PM 80.6 °F 80.3 °F 53.6 °F 39% 29.88 in 10.0 mi NNW 11.5 mph - N/A   Clear
8:33 PM 78.8 °F - 51.8 °F 39% 29.88 in 10.0 mi NNW 11.5 mph - N/A   Clear
8:54 PM 78.8 °F - 51.8 °F 39% 29.88 in 10.0 mi NNW 11.5 mph 16.1 mph N/A   Clear
9:13 PM 77.0 °F - 50.0 °F 39% 29.88 in 10.0 mi NW 10.4 mph - N/A   Clear
9:33 PM 75.2 °F - 48.2 °F 38% 29.88 in 10.0 mi NW 11.5 mph - N/A   Clear
9:54 PM 73.4 °F - 51.8 °F 47% 29.88 in 10.0 mi NW 9.2 mph - N/A   Clear
10:13 PM 73.4 °F - 51.8 °F 47% 29.89 in 10.0 mi NW 9.2 mph - N/A   Clear
10:33 PM 71.6 °F - 51.8 °F 50% 29.89 in 10.0 mi NW 9.2 mph - N/A   Clear
10:54 PM 71.6 °F - 51.8 °F 50% 29.88 in 10.0 mi NW 10.4 mph - N/A   Clear
11:13 PM 71.6 °F - 51.8 °F 50% 29.89 in 10.0 mi NW 10.4 mph - N/A   Clear
11:33 PM 69.8 °F - 51.8 °F 53% 29.90 in 10.0 mi NW 9.2 mph - N/A   Clear
11:54 PM 69.8 °F - 51.8 °F 53% 29.90 in 10.0 mi NW 8.1 mph - N/A   Clear